sat.trackr.live / text

‹ back to catalog

STARLINK-2109

NORAD 47388 · 2021-005AR

PAYLOAD ACTIVE UNKNOWN

§ Identity

Operator
Country
US
Launch date
2021-01-20
Launch site
AFETR
Launch vehicle
Mass (kg)
RCS (m²)

Purposes: comms

External: N2YO · Heavens-Above · Gunter

§ Orbital elements

Epoch: 2026-09-19T23:22:12.535680Z

Period
93.81 min
Inclination
53.1559°
Eccentricity
0.0004579
Mean motion
15.34996596 rev/d
Perigee alt
457.8 km
Apogee alt
464.1 km
Semi-major
6,839.1 km
B*
9.7381e-4
RAAN
241.5083°
Arg perigee
58.8002°
Mean anomaly
301.3449°
Rev number
31,274

§ Raw data

STARLINK-21091 47388U 21005AR  26262.97375620  .00033310  00000+0  97381-3 0  99952 47388  53.1559 241.5083 0004579  58.8002 301.3449 15.34996596312749

JSON: /api/v1/satellites/47388 · /tle

For live sub-satellite position, see the globe view (requires WebGL).

§ Visibility from observer

Set your observer location to see the next 7 days of passes ≥ 10°. The values pass through the URL so the page stays shareable.

No JS? Fill the form by hand. The geolocation button needs JavaScript.